User: anonymous   Login
Location: Bonac
(42.8765°N, 0.9753°E)
Time: 05:53:19
(UTC+00:00)
Language:

Cosmos 676 Rocket - Orbit

View from above orbital plane
View from above orbital plane
View from above satellite
View from above satellite

Ground track
Ground track

The orbit is defined by the following mean orbital elements,

1 07434U          26075.16353458 +.00000000 +00000-0 +10017-3 0 00008
2 07434  74.0436 104.3791 0021501 303.3827  56.5270 14.38192139    00
Epoch (UTC): 16 March 2026 03:55:29
Eccentricity: 0.0021501
inclination: 74.0436°
perigee height: 749 km
apogee height: 780 km
right ascension of ascending node: 104.3791°
argument of perigee: 303.3827°
revolutions per day: 14.38192139
mean anomaly at epoch: 56.5270°

The dashed part of the orbit path shows where the satellite is in the earth's shadow,  

DLR